[[{"header":{"parameterUnit":"m.s-1","parameterCategory":1,"la1":30.2992,"la2":30.254,"lo1":-89.0895,"lo2":-89.0443,"dy":0.0025,"dx":0.0025,"nx":19,"ny":19,"refTime":"2026-05-22T21:00:00:Z","depth":0,"parameterNumber":2,"parameterNumberName":"U-component_of_WINDS"},"data":[0,0,0,-0.511,-0.5112,-0.527,-0.5271,-0.5458,-0.5459,0,0,0,0,0,0,0,0,0,0,0,-0.5049,-0.5049,-0.5109,-0.5113,-0.527,-0.5271,-0.5457,-0.5459,0,0,0,0,0,0,0,0,0,0,0,-0.5048,-0.5049,-0.505,-0.5113,-0.527,-0.5271,-0.5457,-0.5345,0,0,0,0,0,0,0,0,0,0,-0.5195,-0.5123,-0.5049,-0.505,-0.5114,-0.527,-0.5271,-0.5339,-0.5352,-0.5378,0,-0.5393,0,-0.5428,-0.547,-0.5471,0,0,0,-0.5125,-0.5113,-0.5168,-0.505,-0.5115,-0.527,-0.5203,-0.5346,-0.536,-0.5394,-0.5396,-0.5404,-0.5432,-0.5471,-0.5472,-0.5574,-0.5574,0,0,-0.5116,-0.507,-0.5158,-0.5176,-0.5145,-0.5197,-0.5207,-0.5355,-0.5356,-0.5397,-0.5408,-0.5435,-0.5472,-0.5473,-0.5574,-0.5574,0,0,0,-0.5083,-0.5064,-0.5116,-0.5167,-0.5197,-0.5202,-0.5213,-0.535,-0.537,-0.541,-0.5437,-0.5473,-0.5475,-0.5574,-0.5574,-0.5523,0,0,0,-0.5078,-0.5044,-0.5111,-0.5085,-0.5193,-0.5274,-0.5204,-0.536,-0.5378,-0.5436,-0.5473,-0.5477,-0.5574,-0.5574,-0.5525,-0.5508,0,0,0,-0.5043,-0.5041,-0.5058,-0.5082,-0.5147,-0.5273,-0.5302,-0.5365,-0.5394,-0.5471,-0.5477,-0.5574,-0.5574,-0.5526,-0.551,-0.5521,0,0,0,-0.4994,-0.5012,-0.5056,-0.5088,-0.5146,-0.5239,-0.5302,-0.5374,-0.5434,-0.5474,-0.5574,-0.5574,-0.5527,-0.5512,-0.5522,-0.5521,-0.5516,0,0,-0.4992,-0.5011,-0.5033,-0.5077,-0.5149,-0.5218,-0.5287,-0.5387,-0.5439,-0.5527,-0.553,-0.5524,-0.551,-0.5521,-0.5505,-0.55,0,0,0,-0.5017,-0.5033,-0.5062,-0.5115,-0.519,-0.5254,-0.5348,-0.5386,-0.5463,-0.5473,-0.5533,-0.5526,-0.5535,-0.5536,-0.5533,-0.5544,-0.5573,-0.5573,-0.5573,-0.495,-0.5012,-0.5054,-0.5135,-0.5186,-0.5284,-0.5333,-0.5401,-0.5451,-0.5464,-0.5491,-0.5473,-0.5473,-0.547,-0.5481,-0.5496,-0.5495,-0.5495,-0.5495,-0.4953,-0.4985,-0.505,-0.5113,-0.5181,-0.5238,-0.5334,-0.5367,-0.5433,-0.5458,-0.5468,-0.549,-0.5463,-0.5476,-0.5492,-0.5493,-0.5493,-0.5493,-0.5493,-0.4915,-0.4942,-0.4985,-0.5069,-0.5128,-0.5212,-0.5271,-0.5332,-0.539,-0.54,-0.5436,-0.5437,-0.5446,-0.5413,-0.5413,-0.5413,-0.5413,-0.5413,-0.5413,-0.4859,-0.491,-0.4949,-0.503,-0.5073,-0.5138,-0.5237,-0.5283,-0.535,-0.539,-0.5391,-0.544,-0.5448,-0.5449,-0.5412,-0.5412,-0.5412,-0.5412,-0.5412,-0.4839,-0.4853,-0.4914,-0.4956,-0.5059,-0.5114,-0.5191,-0.5279,-0.5326,-0.5354,-0.5402,-0.5398,-0.5423,-0.5426,-0.5427,-0.5387,-0.5387,-0.5387,-0.5387,-0.4807,-0.4825,-0.4901,-0.4966,-0.5036,-0.5112,-0.5184,-0.5263,-0.5348,-0.5382,-0.5397,-0.5404,-0.5405,-0.5429,-0.5433,-0.5435,-0.5397,-0.5398,-0.5398,-0.4799,-0.4827,-0.4873,-0.4952,-0.5037,-0.511,-0.518,-0.5256,-0.5356,-0.5399,-0.5411,-0.541,-0.5422,-0.5422,-0.5465,-0.5468,-0.5474,0,0]},{"header":{"parameterUnit":"m.s-1","parameterCategory":1,"la1":30.2992,"la2":30.254,"lo1":-89.0895,"lo2":-89.0443,"dy":0.0025,"dx":0.0025,"nx":19,"ny":19,"refTime":"2026-05-22T21:00:00:Z","depth":0,"parameterNumber":3,"parameterNumberName":"V-component_of_WINDS"},"data":[0,0,0,5.4661,5.4665,5.4843,5.4843,5.5068,5.507,0,0,0,0,0,0,0,0,0,0,0,5.4613,5.4615,5.4661,5.4666,5.4843,5.4843,5.5068,5.507,0,0,0,0,0,0,0,0,0,0,0,5.4612,5.4615,5.4617,5.4666,5.4842,5.4843,5.5067,5.4933,0,0,0,0,0,0,0,0,0,0,5.4761,5.4722,5.4614,5.4617,5.4667,5.4842,5.4843,5.4926,5.4941,5.4989,0,5.5037,0,5.5058,5.5086,5.5087,0,0,0,5.4661,5.471,5.4754,5.4617,5.4669,5.4842,5.4761,5.4935,5.4952,5.5009,5.504,5.5049,5.5062,5.5087,5.5088,5.539,5.5391,0,0,5.4651,5.4646,5.4742,5.4765,5.4744,5.4756,5.4767,5.4945,5.4977,5.5041,5.5054,5.5065,5.5089,5.5091,5.5388,5.539,0,0,0,5.4626,5.464,5.468,5.4756,5.4788,5.4761,5.4774,5.4969,5.4983,5.5056,5.5068,5.509,5.5093,5.5386,5.5389,5.5466,0,0,0,5.462,5.4625,5.4676,5.4674,5.4785,5.4882,5.4794,5.497,5.4991,5.5067,5.509,5.5095,5.5385,5.5388,5.546,5.5503,0,0,0,5.46,5.4623,5.4651,5.4674,5.475,5.488,5.4903,5.4975,5.4998,5.5087,5.5096,5.5384,5.5387,5.5455,5.5494,5.5581,0,0,0,5.4576,5.4715,5.4652,5.4811,5.4749,5.4928,5.4902,5.5034,5.512,5.5091,5.5385,5.5389,5.5454,5.5489,5.5575,5.5653,5.5686,0,0,5.4749,5.4736,5.483,5.4778,5.4968,5.4901,5.51,5.518,5.519,5.5321,5.5329,5.5462,5.5494,5.558,5.5869,5.5895,0,0,0,5.4882,5.495,5.5001,5.5085,5.5152,5.5211,5.5262,5.5291,5.5404,5.5259,5.5517,5.5536,5.5586,5.5624,5.5646,5.5688,5.5406,5.5405,5.5405,5.5119,5.5128,5.5283,5.5313,5.5393,5.5445,5.5509,5.5556,5.5539,5.56,5.5639,5.5814,5.5857,5.5874,5.5919,5.5681,5.5681,5.5681,5.5681,5.5372,5.5469,5.5445,5.5587,5.5593,5.571,5.5763,5.5747,5.5854,5.5785,5.583,5.5754,5.5902,5.5941,5.5687,5.5686,5.5686,5.5685,5.5685,5.5528,5.5576,5.5612,5.5732,5.5823,5.5845,5.5951,5.5951,5.5952,5.5996,5.6037,5.6035,5.6033,5.6016,5.6016,5.6017,5.6018,5.6018,5.6018,5.5676,5.5714,5.5805,5.5888,5.5941,5.601,5.6061,5.6111,5.6166,5.6158,5.6158,5.6133,5.5916,5.5861,5.6028,5.6026,5.6025,5.6024,5.6023,5.5929,5.5872,5.6013,5.6067,5.6162,5.6251,5.6251,5.6352,5.6393,5.6444,5.641,5.6249,5.6235,5.6217,5.6172,5.6409,5.6409,5.6409,5.6409,5.6061,5.6055,5.6198,5.6283,5.6365,5.6379,5.6533,5.6572,5.6603,5.6628,5.6593,5.6533,5.6515,5.6511,5.6487,5.6445,5.6746,5.6746,5.6747,5.6217,5.6218,5.6352,5.6386,5.646,5.6522,5.6666,5.6759,5.6782,5.676,5.6647,5.6633,5.6535,5.6503,5.648,5.6443,5.6365,0,0]}]]